[[{"header":{"parameterUnit":"m.s-1","parameterCategory":2,"la1":30.2991,"la2":30.254,"lo1":-89.0895,"lo2":-89.0444,"dy":0.0017,"dx":0.0017,"nx":28,"ny":28,"refTime":"2024-09-28T09:00:00:Z","depth":"0","parameterNumber":2,"parameterNumberName":"U-component_of_CURRENTS"},"data":[0,0,0,0,0,0,0,0,0,0,0,0,0,0,0,0,0,0,0,0,0,0,0,0,0,0,0,0,0,0,0,0,0,0,0,0,0,0,0,0,0,0,0,0,0,0,0,0,0,0,0,0,0,0,0,0,0,0,0.1098,0.1098,0,0.1105,0.1105,0.1105,0.1094,0.1094,0.1094,0.1094,0.1145,0.1146,0.1148,0,0,0,0,0,0,0,0,0,0,0,0,0,0.1073,0.1073,0.1098,0.1098,0.1099,0.1105,0.1105,0.1105,0.1094,0.1094,0.1094,0.1094,0.1144,0.1146,0.1148,0,0,0,0,0,0,0,0,0,0,0,0,0,0.1081,0.1073,0.1098,0.1095,0.1095,0.1105,0.1105,0.1105,0.1094,0.1094,0.1094,0.1093,0.1143,0.1146,0.1148,0.1168,0,0,0.1155,0.1156,0,0,0,0,0,0,0,0,0.108,0.1081,0.1096,0.1096,0.1096,0.11,0.1115,0.1129,0.1094,0.1093,0.1094,0.1093,0.1135,0.1138,0.1137,0.1171,0.1173,0.1155,0.1157,0.1158,0.1158,0,0,0,0,0,0,0,0.108,0.1081,0.1099,0.1096,0.1096,0.1094,0.1094,0.1117,0.1115,0.1093,0.1092,0.1097,0.1135,0.1135,0.1138,0.1174,0.1155,0.1157,0.1159,0.116,0.1241,0.1242,0,0,0,0,0,0,0.1083,0.108,0.1099,0.1099,0.1089,0.1094,0.1095,0.1097,0.1114,0.1116,0.1097,0.1096,0.1131,0.1135,0.114,0.1211,0.1158,0.116,0.1161,0.124,0.1241,0.1242,0,0,0,0,0,0,0.1083,0.1085,0.1098,0.1092,0.1093,0.1095,0.1098,0.1098,0.1096,0.1117,0.1119,0.1096,0.1131,0.1137,0.1155,0.1211,0.1161,0.1163,0.124,0.1241,0.1242,0.1323,0,0,0,0,0,0,0.1082,0.1084,0.1091,0.1092,0.1094,0.1109,0.1099,0.1098,0.11,0.1099,0.1117,0.1121,0.1131,0.1152,0.1158,0.1213,0.1165,0.1239,0.124,0.1241,0.1319,0.1327,0.1333,0,0,0,0,0,0.1081,0.11,0.1092,0.1094,0.1102,0.1109,0.111,0.1109,0.11,0.1104,0.1109,0.112,0.1166,0.1154,0.1161,0.1218,0.1238,0.124,0.1241,0.1316,0.1325,0.1333,0,0,0,0,0,0,0.1109,0.1101,0.1092,0.1111,0.1109,0.1108,0.1122,0.111,0.1115,0.1119,0.1124,0.1129,0.1169,0.117,0.1156,0.1242,0.1207,0.121,0.1262,0.127,0.1277,0.1292,0.1167,0,0,0,0,0,0.1114,0.1117,0.111,0.1127,0.1129,0.1121,0.1125,0.1121,0.1125,0.1126,0.1138,0.1155,0.1182,0.1204,0.122,0.1266,0.1295,0.1306,0.1313,0.1319,0.1334,0.139,0.1405,0.1248,0.1248,0.1248,0,0,0.1132,0.1128,0.1131,0.1131,0.1133,0.1159,0.1123,0.1135,0.1165,0.1134,0.118,0.1176,0.1194,0.1245,0.1265,0.1255,0.1387,0.1321,0.1327,0.1338,0.1394,0.1409,0.1423,0.1249,0.1249,0.1249,0,0,0.1177,0.1164,0.1183,0.1183,0.1186,0.1188,0.119,0.119,0.1197,0.1223,0.1218,0.1237,0.1274,0.1304,0.1324,0.1376,0.1413,0.1385,0.1451,0.1506,0.1521,0.1533,0.1633,0.1654,0.14,0.14,0.14,0,0.1201,0.1221,0.1192,0.1216,0.1233,0.1205,0.1243,0.1252,0.1258,0.1275,0.1249,0.1304,0.131,0.139,0.1406,0.1399,0.1444,0.1424,0.1519,0.1532,0.1543,0.1642,0.1664,0.1404,0.1404,0.1403,0.1403,0,0.1262,0.1277,0.1293,0.1314,0.1327,0.1352,0.136,0.1373,0.1371,0.1379,0.1427,0.1423,0.146,0.1469,0.1456,0.155,0.1564,0.1515,0.1505,0.1565,0.1664,0.1686,0.141,0.1409,0.1408,0.1407,0,0,0.1326,0.1332,0.1341,0.1352,0.1379,0.1391,0.145,0.1487,0.1521,0.1527,0.1583,0.1614,0.1598,0.1616,0.1609,0.1651,0.1776,0.1624,0.1625,0.1738,0.1945,0.2012,0.2042,0.1745,0.1749,0.1751,0.1998,0,0.1387,0.1433,0.1434,0.1492,0.1517,0.1514,0.1566,0.1594,0.1612,0.1655,0.1663,0.1707,0.1664,0.1681,0.1722,0.1747,0.1829,0.1716,0.1857,0.1863,0.1926,0.2067,0.2025,0.2245,0.2019,0.2022,0.2025,0,0.1458,0.1472,0.1531,0.1556,0.157,0.1603,0.1663,0.1703,0.1758,0.1771,0.1817,0.1821,0.1902,0.1829,0.1963,0.1895,0.1941,0.1958,0.1967,0.2015,0.1969,0.2138,0.2293,0.2195,0.2058,0.2055,0.2053,0,0.1502,0.1545,0.1586,0.1597,0.1629,0.1654,0.168,0.1735,0.1775,0.1849,0.1887,0.1967,0.2013,0.207,0.2124,0.2054,0.227,0.2174,0.2298,0.2305,0.229,0.229,0.2375,0.2292,0.2292,0.2291,0.229,0,0.1561,0.1593,0.1596,0.1611,0.1664,0.1676,0.1739,0.1774,0.1837,0.1903,0.1945,0.2022,0.2068,0.2184,0.2209,0.2363,0.236,0.2367,0.2386,0.2321,0.2321,0.2247,0.2165,0.23,0.2298,0.2296,0.2295,0,0.1601,0.1605,0.1648,0.1673,0.1678,0.1715,0.1757,0.1801,0.186,0.1953,0.1986,0.2103,0.2266,0.2352,0.2478,0.2498,0.2557,0.2659,0.2612,0.2621,0.2608,0.2532,0.2574,0.2525,0.2843,0.2846,0.2849,0,0.162,0.1642,0.1681,0.1696,0.1702,0.1738,0.1764,0.1812,0.1861,0.2005,0.2059,0.2245,0.2378,0.2637,0.2722,0.2876,0.2715,0.2917,0.2759,0.2666,0.2594,0.2428,0.2368,0.2791,0.2793,0.2795,0.2796,0,0.1649,0.1667,0.1686,0.1719,0.1741,0.1779,0.1814,0.1852,0.1927,0.2016,0.2163,0.2284,0.2555,0.2707,0.2925,0.2984,0.278,0.2958,0.2856,0.2588,0.2417,0.2358,0.2593,0.2811,0.281,0.2809,0.2808,0.2807,0.1661,0.1685,0.1698,0.1725,0.1759,0.1794,0.1807,0.186,0.1937,0.204,0.2187,0.2332,0.2584,0.2881,0.2957,0.3019,0.2917,0.2933,0.2869,0.2724,0.2608,0.292,0.3144,0.3145,0.3145,0.3145,0.3145,0,0.1653,0.1664,0.1693,0.1717,0.1738,0.1765,0.1816,0.1816,0.1881,0.2015,0.2133,0.2358,0.2575,0.2754,0.2932,0.2902,0.2757,0.284,0.2553,0.2512,0.2809,0.2735,0.2887,0.2887,0.2887,0.2887,0.2887,0.2887,0.1642,0.1646,0.1652,0.1658,0.1682,0.1683,0.1701,0.1728,0.1793,0.1893,0.1992,0.2125,0.2386,0.264,0.271,0.2692,0.2474,0.2442,0.2387,0.2536,0.2535,0.2535,0.2446,0.2534,0.2533,0.201,0.2006,0.2003]},{"header":{"parameterUnit":"m.s-1","parameterCategory":2,"la1":30.2991,"la2":30.254,"lo1":-89.0895,"lo2":-89.0444,"dy":0.0017,"dx":0.0017,"nx":28,"ny":28,"refTime":"2024-09-28T09:00:00:Z","depth":"0","parameterNumber":3,"parameterNumberName":"V-component_of_CURRENTS"},"data":[0,0,0,0,0,0,0,0,0,0,0,0,0,0,0,0,0,0,0,0,0,0,0,0,0,0,0,0,0,0,0,0,0,0,0,0,0,0,0,0,0,0,0,0,0,0,0,0,0,0,0,0,0,0,0,0,0,0,-0.014,-0.014,0,-0.0232,-0.0233,-0.0235,-0.0273,-0.0273,-0.0273,-0.0273,-0.0396,-0.0399,-0.0403,0,0,0,0,0,0,0,0,0,0,0,0,0,-0.0071,-0.0071,-0.0139,-0.0141,-0.0142,-0.0232,-0.0234,-0.0235,-0.0273,-0.0273,-0.0273,-0.0273,-0.0395,-0.0399,-0.0403,0,0,0,0,0,0,0,0,0,0,0,0,0,-0.0126,-0.0072,-0.0139,-0.0171,-0.0175,-0.0232,-0.0234,-0.0235,-0.0274,-0.0273,-0.0273,-0.0272,-0.0393,-0.0399,-0.0404,-0.0443,0,0,-0.042,-0.0422,0,0,0,0,0,0,0,0,-0.0123,-0.0129,-0.0166,-0.0169,-0.0174,-0.0241,-0.0255,-0.0306,-0.0274,-0.0237,-0.0273,-0.0272,-0.0347,-0.0356,-0.0374,-0.0449,-0.0454,-0.042,-0.0423,-0.0426,-0.0427,0,0,0,0,0,0,0,-0.0119,-0.0125,-0.0177,-0.0167,-0.0172,-0.0207,-0.0214,-0.0265,-0.0293,-0.024,-0.0243,-0.0253,-0.0349,-0.0369,-0.0378,-0.0456,-0.042,-0.0425,-0.0428,-0.043,-0.0582,-0.0583,0,0,0,0,0,0,-0.0103,-0.0121,-0.0174,-0.0179,-0.0146,-0.0208,-0.0216,-0.022,-0.0292,-0.0303,-0.0253,-0.0254,-0.036,-0.0371,-0.0382,-0.0423,-0.0426,-0.0431,-0.0434,-0.0581,-0.0583,-0.0584,0,0,0,0,0,0,-0.0101,-0.0106,-0.017,-0.0153,-0.0163,-0.0209,-0.0214,-0.0222,-0.0241,-0.0302,-0.0313,-0.0263,-0.0361,-0.0375,-0.0424,-0.0428,-0.0433,-0.0438,-0.058,-0.0582,-0.0583,-0.0511,0,0,0,0,0,0,-0.0098,-0.0105,-0.0105,-0.0151,-0.0163,-0.0204,-0.0214,-0.0224,-0.0247,-0.0249,-0.0314,-0.0325,-0.0361,-0.0416,-0.0429,-0.0435,-0.0442,-0.0579,-0.0581,-0.0583,-0.0512,-0.051,-0.0507,0,0,0,0,0,-0.0096,-0.0096,-0.0104,-0.0111,-0.016,-0.0204,-0.0214,-0.0246,-0.0247,-0.026,-0.0298,-0.0323,-0.0436,-0.042,-0.0436,-0.0444,-0.0578,-0.0581,-0.0582,-0.0513,-0.051,-0.0508,0,0,0,0,0,0,-0.0078,-0.0102,-0.0111,-0.0122,-0.0159,-0.021,-0.0225,-0.0244,-0.0284,-0.0288,-0.0333,-0.0348,-0.039,-0.0434,-0.0416,-0.0496,-0.0513,-0.0518,-0.0455,-0.0453,-0.045,-0.0404,-0.0446,0,0,0,0,0,-0.007,-0.0069,-0.011,-0.012,-0.0135,-0.0178,-0.0199,-0.0225,-0.0265,-0.0282,-0.0321,-0.037,-0.0413,-0.0444,-0.049,-0.0537,-0.0542,-0.0556,-0.0554,-0.0551,-0.0526,-0.0539,-0.0534,-0.059,-0.059,-0.059,0,0,-0.007,-0.008,-0.0084,-0.0115,-0.0144,-0.0165,-0.019,-0.0225,-0.0238,-0.0291,-0.0317,-0.0361,-0.0423,-0.0467,-0.0492,-0.0504,-0.054,-0.0554,-0.055,-0.0527,-0.054,-0.0534,-0.0529,-0.0592,-0.0591,-0.0591,0,0,-0.0066,-0.0074,-0.0073,-0.0095,-0.0133,-0.0162,-0.0168,-0.0218,-0.0232,-0.0274,-0.0305,-0.0343,-0.0423,-0.0453,-0.0483,-0.05,-0.0521,-0.0531,-0.0487,-0.0499,-0.0494,-0.0489,-0.0482,-0.0477,-0.0536,-0.0535,-0.0535,0,-0.0062,-0.0062,-0.0085,-0.009,-0.0099,-0.0153,-0.016,-0.0191,-0.0249,-0.0246,-0.0276,-0.0355,-0.041,-0.0438,-0.0446,-0.049,-0.0494,-0.0486,-0.0491,-0.0487,-0.0482,-0.0477,-0.0472,-0.0532,-0.0533,-0.0533,-0.0533,0,-0.0058,-0.0058,-0.0061,-0.0073,-0.009,-0.011,-0.0147,-0.0164,-0.0189,-0.0212,-0.0241,-0.0313,-0.035,-0.0388,-0.0424,-0.043,-0.044,-0.0476,-0.0485,-0.0471,-0.0468,-0.0464,-0.0528,-0.0529,-0.053,-0.0531,0,0,-0.0038,-0.0052,-0.005,-0.0041,-0.0077,-0.0089,-0.01,-0.0115,-0.0098,-0.0166,-0.0143,-0.0231,-0.0255,-0.0289,-0.0344,-0.0365,-0.035,-0.0405,-0.0407,-0.0372,-0.0358,-0.034,-0.0335,-0.0386,-0.0385,-0.0384,-0.0363,0,-0.0023,-0.0014,-0.0026,-0.0018,-0.0016,-0.0042,-0.0035,-0.0053,-0.0075,-0.0071,-0.0133,-0.0153,-0.0224,-0.0242,-0.027,-0.0327,-0.0338,-0.035,-0.0398,-0.0398,-0.0363,-0.0329,-0.0319,-0.0298,-0.036,-0.0359,-0.0359,0,0.0,0.0003,0.0017,0.0039,0.0041,0.0037,0.0064,0.0059,0.0051,0.0038,0.001,-0.0035,-0.0072,-0.0142,-0.0207,-0.0211,-0.0268,-0.0317,-0.0319,-0.0317,-0.0373,-0.0326,-0.0289,-0.041,-0.0353,-0.0354,-0.0354,0,0.0047,0.005,0.007,0.0071,0.0069,0.0088,0.0092,0.0095,0.0117,0.0107,0.012,0.0067,0.0044,-0.0034,-0.0134,-0.0169,-0.0193,-0.0262,-0.0293,-0.0293,-0.0299,-0.03,-0.0359,-0.0291,-0.0291,-0.0292,-0.0292,0,0.0088,0.0106,0.0093,0.0102,0.0143,0.0134,0.0183,0.0183,0.0202,0.0242,0.0178,0.0196,0.007,0.0034,-0.0074,-0.0149,-0.0146,-0.0255,-0.0279,-0.0276,-0.0275,-0.0394,-0.0466,-0.0291,-0.0291,-0.0291,-0.0291,0,0.0134,0.0127,0.0149,0.0153,0.0163,0.0191,0.0232,0.0273,0.0278,0.0329,0.0329,0.0306,0.0266,0.0155,0.0047,-0.0058,-0.0198,-0.0177,-0.0149,-0.0169,-0.0326,-0.0394,-0.0428,-0.0464,-0.0208,-0.0207,-0.0207,0,0.016,0.0171,0.0185,0.0206,0.0206,0.0244,0.0283,0.0302,0.0345,0.0398,0.0431,0.0423,0.0433,0.0303,0.0131,-0.0012,-0.0145,-0.0118,-0.0193,-0.0303,-0.0397,-0.0434,-0.0466,-0.0177,-0.0176,-0.0175,-0.0175,0,0.0194,0.0195,0.0206,0.025,0.0286,0.0339,0.0389,0.0435,0.0475,0.0534,0.0607,0.0628,0.0522,0.0413,0.0225,0.0087,-0.0184,-0.0109,-0.024,-0.0371,-0.0399,-0.0456,-0.0216,-0.0169,-0.017,-0.017,-0.017,-0.0171,0.0218,0.0232,0.0251,0.0298,0.0348,0.0426,0.0486,0.0554,0.0648,0.0758,0.0757,0.0832,0.0645,0.0403,0.0207,-0.0136,-0.0138,-0.0262,-0.033,-0.0354,-0.0399,-0.0124,-0.0099,-0.0099,-0.0099,-0.0099,-0.0099,0,0.025,0.0266,0.0305,0.0364,0.0436,0.0457,0.0558,0.0634,0.0761,0.0879,0.0964,0.0944,0.0696,0.0396,-0.0041,-0.0306,-0.0419,-0.046,-0.054,-0.0561,-0.0334,-0.0345,-0.0351,-0.0351,-0.0351,-0.0351,-0.0351,-0.0351,0.0271,0.0305,0.0322,0.043,0.0485,0.0594,0.0661,0.0781,0.0884,0.1059,0.1143,0.1188,0.0984,0.0179,-0.0389,-0.0545,-0.0738,-0.076,-0.0844,-0.074,-0.0728,-0.0717,-0.0745,-0.0835,-0.0836,-0.1037,-0.104,-0.1042]}],[{"header":{"parameterUnit":"m.s-1","parameterCategory":2,"la1":30.2991,"la2":30.254,"lo1":-89.0895,"lo2":-89.0444,"dy":0.0017,"dx":0.0017,"nx":28,"ny":28,"refTime":"2024-09-28T09:00:00:Z","depth":"2","parameterNumber":2,"parameterNumberName":"U-component_of_CURRENTS"},"data":[0,0,0,0,0,0,0,0,0,0,0,0,0,0,0,0,0,0,0,0,0,0,0,0,0,0,0,0,0,0,0,0,0,0,0,0,0,0,0,0,0,0,0,0,0,0,0,0,0,0,0,0,0,0,0,0,0,0,0.0262,0.0262,0,0.0235,0.0234,0.0234,0.0256,0.0257,0.0258,0.0258,0.026,0.0259,0.0259,0,0,0,0,0,0,0,0,0,0,0,0,0,0.0292,0.0292,0.0262,0.0262,0.0261,0.0235,0.0234,0.0234,0.0256,0.0257,0.0258,0.0259,0.026,0.0259,0.0259,0,0,0,0,0,0,0,0,0,0,0,0,0,0.0275,0.0292,0.0262,0.0267,0.0267,0.0235,0.0234,0.0234,0.0256,0.0257,0.0258,0.0259,0.026,0.0259,0.0258,0.023,0,0,0.0255,0.0255,0,0,0,0,0,0,0,0,0.0276,0.0274,0.0267,0.0267,0.0267,0.0248,0.0246,0.0233,0.0255,0.0262,0.0258,0.026,0.0257,0.0256,0.0251,0.023,0.023,0.0255,0.0255,0.0254,0.0254,0,0,0,0,0,0,0,0.0277,0.0275,0.0253,0.0266,0.0266,0.0257,0.0256,0.0243,0.0255,0.0262,0.0263,0.0256,0.0257,0.0251,0.0251,0.023,0.0255,0.0254,0.0254,0.0253,0.012,0.0117,0,0,0,0,0,0,0.0278,0.0277,0.0254,0.0252,0.0272,0.0255,0.0255,0.0255,0.0255,0.0255,0.0255,0.0257,0.0253,0.0252,0.0251,0.0236,0.0254,0.0253,0.0253,0.0123,0.0119,0.0116,0,0,0,0,0,0,0.0279,0.0276,0.0255,0.0262,0.0258,0.0254,0.0253,0.0253,0.0284,0.0249,0.0251,0.0289,0.0253,0.0252,0.0235,0.0236,0.0253,0.0252,0.0126,0.0122,0.0118,0.0194,0,0,0,0,0,0,0.028,0.0277,0.0289,0.0262,0.0258,0.0243,0.0252,0.0252,0.0275,0.0278,0.0278,0.0277,0.0254,0.0236,0.0234,0.0235,0.0251,0.013,0.0124,0.0119,0.0195,0.0193,0.019,0,0,0,0,0,0.0281,0.0278,0.029,0.0287,0.0271,0.0243,0.024,0.0241,0.0276,0.0278,0.0267,0.0279,0.0198,0.0234,0.0232,0.0233,0.0133,0.0126,0.012,0.0196,0.0193,0.019,0,0,0,0,0,0,0.0303,0.0279,0.0292,0.0286,0.0274,0.0246,0.0259,0.0264,0.0262,0.0291,0.0263,0.0259,0.0234,0.0208,0.0248,0.0163,0.0159,0.0151,0.0217,0.0214,0.0212,0.0286,0.025,0,0,0,0,0,0.0313,0.0293,0.0285,0.0275,0.0293,0.0291,0.029,0.0297,0.0284,0.0289,0.0267,0.0238,0.0196,0.0192,0.0146,0.0126,0.0169,0.0109,0.0106,0.0106,0.0154,0.0198,0.0208,0.0094,0.0095,0.0095,0,0,0.0314,0.0297,0.0288,0.0277,0.0288,0.0275,0.0295,0.0314,0.0294,0.0288,0.0265,0.024,0.0183,0.0142,0.0128,0.0134,0.0154,0.0097,0.0098,0.0148,0.0193,0.0205,0.0217,0.009,0.0091,0.0091,0,0,0.0316,0.0313,0.0325,0.0293,0.0307,0.0297,0.0313,0.031,0.0319,0.0286,0.0266,0.026,0.0178,0.0155,0.0128,0.0088,0.0136,0.0044,0.0115,0.0156,0.0169,0.0181,0.0257,0.0275,0.0051,0.0051,0.0051,0,0.0308,0.0333,0.0321,0.0308,0.0289,0.031,0.0321,0.0302,0.0276,0.0309,0.0282,0.0226,0.0188,0.0174,0.0146,0.0097,0.0138,0.0146,0.0166,0.0178,0.0189,0.0263,0.0283,0.0054,0.0053,0.0053,0.0053,0,0.0319,0.0329,0.0332,0.0312,0.0288,0.0294,0.0271,0.0296,0.0312,0.0296,0.0308,0.0254,0.0246,0.0195,0.0163,0.0203,0.0214,0.0163,0.0204,0.0208,0.0282,0.0301,0.0058,0.0057,0.0056,0.0055,0,0,0.0283,0.0339,0.0317,0.0365,0.03,0.0301,0.029,0.0322,0.0386,0.0331,0.0384,0.0307,0.0342,0.0313,0.0277,0.0303,0.0405,0.028,0.0281,0.0413,0.0541,0.0528,0.0548,0.037,0.0373,0.0376,0.0568,0,0.0301,0.032,0.0314,0.0327,0.037,0.036,0.0335,0.0347,0.0382,0.0417,0.0406,0.0412,0.0356,0.039,0.0405,0.0412,0.0457,0.0361,0.0468,0.0473,0.0508,0.0569,0.0476,0.0637,0.0586,0.059,0.0592,0,0.032,0.0329,0.0364,0.0433,0.045,0.0438,0.0511,0.0493,0.053,0.0567,0.0608,0.0584,0.0627,0.055,0.0638,0.0586,0.0587,0.0578,0.0584,0.0574,0.0496,0.0614,0.0673,0.0624,0.0622,0.0619,0.0617,0,0.0361,0.0383,0.0437,0.0414,0.0447,0.0511,0.0536,0.0569,0.0589,0.069,0.0725,0.0775,0.0795,0.0821,0.08,0.0749,0.088,0.08,0.0793,0.0793,0.0739,0.0728,0.0866,0.0865,0.0865,0.0864,0.0864,0,0.0382,0.0426,0.0482,0.0499,0.0561,0.0568,0.0669,0.0723,0.0759,0.0789,0.0812,0.0849,0.0862,0.0899,0.0886,0.0931,0.0965,0.0862,0.0854,0.0755,0.0744,0.0735,0.0717,0.0872,0.087,0.0869,0.0867,0,0.0405,0.0447,0.0507,0.0566,0.0608,0.0624,0.0705,0.077,0.0825,0.0872,0.0894,0.0935,0.104,0.1041,0.1104,0.1047,0.1082,0.1066,0.0971,0.0947,0.0957,0.0939,0.1142,0.1143,0.1145,0.1146,0.1146,0,0.0422,0.0472,0.0524,0.0558,0.06,0.0663,0.0717,0.0787,0.0823,0.0914,0.0908,0.1027,0.1062,0.117,0.1125,0.1164,0.116,0.1116,0.0985,0.1021,0.0992,0.0972,0.0954,0.0949,0.0948,0.0948,0.0947,0,0.0426,0.0446,0.0459,0.0556,0.0628,0.0649,0.0739,0.0757,0.0825,0.0879,0.0946,0.0993,0.1071,0.1077,0.1121,0.1105,0.1115,0.1104,0.1197,0.0872,0.0848,0.0815,0.0802,0.0941,0.0941,0.0942,0.0942,0.0942,0.0378,0.0394,0.0474,0.0544,0.0604,0.0636,0.0674,0.0737,0.0771,0.0819,0.0874,0.095,0.0956,0.0975,0.0982,0.1026,0.1044,0.1037,0.1035,0.1036,0.0958,0.0934,0.1033,0.1034,0.1035,0.1036,0.1037,0,0.0319,0.044,0.0509,0.0571,0.0603,0.0684,0.0696,0.0697,0.075,0.0803,0.0841,0.077,0.0791,0.0891,0.0895,0.0878,0.0813,0.0928,0.0844,0.0851,0.0857,0.0766,0.0792,0.0792,0.0792,0.0791,0,0,0.0346,0.0404,0.0482,0.0576,0.0651,0.0682,0.069,0.0685,0.07,0.0698,0.0758,0.0725,0.0835,0.077,0.0761,0.0824,0.0835,0.0806,0.0997,0.0905,0.0911,0.0912,0.0779,0,0,0,0,0]},{"header":{"parameterUnit":"m.s-1","parameterCategory":2,"la1":30.2991,"la2":30.254,"lo1":-89.0895,"lo2":-89.0444,"dy":0.0017,"dx":0.0017,"nx":28,"ny":28,"refTime":"2024-09-28T09:00:00:Z","depth":"2","parameterNumber":3,"parameterNumberName":"V-component_of_CURRENTS"},"data":[0,0,0,0,0,0,0,0,0,0,0,0,0,0,0,0,0,0,0,0,0,0,0,0,0,0,0,0,0,0,0,0,0,0,0,0,0,0,0,0,0,0,0,0,0,0,0,0,0,0,0,0,0,0,0,0,0,0,-0.01,-0.01,0,-0.0112,-0.0112,-0.0111,-0.0111,-0.0111,-0.0111,-0.0112,-0.0138,-0.0139,-0.0139,0,0,0,0,0,0,0,0,0,0,0,0,0,-0.0076,-0.0076,-0.01,-0.01,-0.0101,-0.0112,-0.0112,-0.0111,-0.0111,-0.0111,-0.0111,-0.0112,-0.0138,-0.0139,-0.0139,0,0,0,0,0,0,0,0,0,0,0,0,0,-0.0082,-0.0076,-0.01,-0.0106,-0.0107,-0.0112,-0.0112,-0.0111,-0.0111,-0.0111,-0.0112,-0.0112,-0.0138,-0.0139,-0.0139,-0.0135,0,0,-0.0141,-0.0142,0,0,0,0,0,0,0,0,-0.0082,-0.0082,-0.0104,-0.0105,-0.0107,-0.0115,-0.0113,-0.0122,-0.0111,-0.0104,-0.0112,-0.0112,-0.0135,-0.0136,-0.013,-0.0136,-0.0137,-0.0141,-0.0142,-0.0142,-0.0142,0,0,0,0,0,0,0,-0.0081,-0.0082,-0.01,-0.0105,-0.0106,-0.0108,-0.0109,-0.0114,-0.0113,-0.0105,-0.0106,-0.0115,-0.0135,-0.0129,-0.013,-0.0138,-0.0141,-0.0142,-0.0142,-0.0143,-0.0033,-0.003,0,0,0,0,0,0,-0.009,-0.0082,-0.0099,-0.01,-0.0101,-0.0109,-0.0109,-0.0108,-0.0113,-0.0115,-0.0115,-0.0115,-0.0128,-0.013,-0.0131,-0.012,-0.0142,-0.0143,-0.0143,-0.0037,-0.0033,-0.0029,0,0,0,0,0,0,-0.0089,-0.009,-0.0099,-0.0096,-0.0098,-0.0109,-0.0107,-0.0108,-0.0121,-0.0121,-0.0123,-0.013,-0.0128,-0.0131,-0.013,-0.0122,-0.0143,-0.0144,-0.0041,-0.0035,-0.0031,-0.0103,0,0,0,0,0,0,-0.0088,-0.009,-0.0098,-0.0096,-0.0098,-0.0107,-0.0107,-0.0108,-0.0127,-0.0128,-0.0135,-0.0136,-0.0129,-0.0129,-0.013,-0.0123,-0.0144,-0.0045,-0.0038,-0.0033,-0.0105,-0.0101,-0.0098,0,0,0,0,0,-0.0087,-0.008,-0.0098,-0.0101,-0.0107,-0.0108,-0.0109,-0.0115,-0.0128,-0.0129,-0.0124,-0.0137,-0.0088,-0.0128,-0.0131,-0.0124,-0.0048,-0.004,-0.0033,-0.0106,-0.0102,-0.0098,0,0,0,0,0,0,-0.0072,-0.008,-0.0099,-0.0097,-0.0113,-0.011,-0.0113,-0.0127,-0.0125,-0.0132,-0.013,-0.013,-0.0117,-0.0093,-0.0138,-0.0057,-0.0056,-0.0049,-0.011,-0.0106,-0.0103,-0.0151,-0.0145,0,0,0,0,0,-0.0077,-0.0077,-0.0092,-0.0097,-0.0102,-0.0117,-0.0124,-0.0134,-0.0133,-0.0134,-0.0136,-0.011,-0.0082,-0.0079,-0.0052,-0.0038,-0.0053,-0.0012,-0.0009,-0.0007,-0.0037,-0.0041,-0.0044,-0.0005,-0.0005,-0.0005,0,0,-0.0084,-0.0082,-0.0091,-0.0096,-0.0105,-0.0102,-0.012,-0.0134,-0.0124,-0.0138,-0.0124,-0.0118,-0.0072,-0.0044,-0.0032,-0.0034,-0.002,0.0002,0.0002,-0.0029,-0.0034,-0.0039,-0.0044,0.0,-0.0001,-0.0001,0,0,-0.0085,-0.0087,-0.0093,-0.0087,-0.0106,-0.0108,-0.0119,-0.0129,-0.0125,-0.0126,-0.0108,-0.0109,-0.0072,-0.0043,-0.0019,0.0023,-0.0006,0.006,0.0022,0.0019,0.0012,0.0007,-0.0024,-0.0032,0.0063,0.0063,0.0062,0,-0.0091,-0.0089,-0.0097,-0.0083,-0.0074,-0.011,-0.0103,-0.0098,-0.0108,-0.0106,-0.0123,-0.0085,-0.007,-0.003,-0.0015,0.0019,0.0002,-0.0018,0.0011,0.0006,0.0001,-0.0028,-0.0036,0.006,0.006,0.0061,0.0061,0,-0.0087,-0.0082,-0.0075,-0.0067,-0.0062,-0.0058,-0.0055,-0.0065,-0.0083,-0.0086,-0.0081,-0.0076,-0.0057,-0.0034,-0.0031,-0.0026,-0.0033,0.0002,-0.0029,-0.0009,-0.0038,-0.0046,0.0056,0.0057,0.0058,0.0059,0,0,-0.0092,-0.0078,-0.0071,-0.0065,-0.0045,-0.0042,-0.0025,-0.0023,-0.0026,-0.0051,-0.0052,-0.0037,-0.0074,-0.0048,-0.0037,-0.006,-0.012,-0.0062,-0.0061,-0.0147,-0.0162,-0.0158,-0.0166,-0.0096,-0.0097,-0.0098,-0.0175,0,-0.0086,-0.0055,-0.0044,-0.0023,-0.0011,-0.0008,0.002,0.0016,-0.0003,-0.001,-0.0029,-0.0024,-0.0055,-0.0068,-0.0099,-0.0102,-0.014,-0.0105,-0.0121,-0.0122,-0.0166,-0.0174,-0.0163,-0.023,-0.0182,-0.0183,-0.0184,0,-0.0074,-0.0056,-0.0024,0.0003,0.0011,0.0021,0.0036,0.0054,0.0045,0.0029,-0.001,-0.0028,-0.0065,-0.0089,-0.0153,-0.0134,-0.0171,-0.019,-0.0192,-0.0179,-0.0132,-0.0232,-0.0245,-0.0197,-0.0196,-0.0195,-0.0194,0,-0.0066,-0.0035,-0.0007,0.0012,0.0036,0.0041,0.0049,0.0053,0.0083,0.004,0.0035,-0.0023,-0.0032,-0.0107,-0.0169,-0.0168,-0.0245,-0.0222,-0.026,-0.026,-0.0249,-0.0246,-0.0284,-0.0284,-0.0284,-0.0284,-0.0284,0,-0.0035,-0.0014,-0.0008,0.0008,0.0043,0.0051,0.0075,0.0072,0.0083,0.0126,0.0051,0.0067,-0.0041,-0.0089,-0.0172,-0.0247,-0.0241,-0.0296,-0.0283,-0.0267,-0.0265,-0.0223,-0.0214,-0.0287,-0.0286,-0.0286,-0.0285,0,-0.0015,-0.0001,0.0017,0.003,0.0047,0.0067,0.0117,0.0137,0.0132,0.0177,0.017,0.0138,0.007,-0.0044,-0.0143,-0.0217,-0.0303,-0.0325,-0.032,-0.0306,-0.0327,-0.032,-0.0398,-0.0399,-0.0399,-0.04,-0.04,0,0.0004,0.0011,0.0032,0.0067,0.0076,0.0111,0.0154,0.0165,0.0201,0.0242,0.0281,0.0225,0.0207,0.0036,-0.0124,-0.0292,-0.0286,-0.0373,-0.0366,-0.0361,-0.034,-0.0333,-0.0326,-0.0383,-0.0383,-0.0383,-0.0383,0,0.0024,0.0022,0.0042,0.0111,0.0153,0.0213,0.0264,0.0307,0.0342,0.0386,0.0458,0.0441,0.0267,0.0098,-0.0147,-0.024,-0.0357,-0.038,-0.037,-0.0344,-0.0349,-0.0328,-0.0321,-0.0385,-0.0385,-0.0385,-0.0384,-0.0384,0.0043,0.0063,0.0096,0.0171,0.023,0.032,0.0382,0.0444,0.0535,0.0583,0.0557,0.0515,0.0267,-0.0047,-0.02,-0.0341,-0.0348,-0.0413,-0.0411,-0.041,-0.0383,-0.0387,-0.0427,-0.0427,-0.0427,-0.0427,-0.0427,0,0.0084,0.0116,0.0172,0.0267,0.0348,0.0365,0.0478,0.0538,0.0659,0.0644,0.0649,0.0404,0.0188,-0.0014,-0.0234,-0.0398,-0.0396,-0.0417,-0.0396,-0.0395,-0.0394,-0.0365,-0.0405,-0.0405,-0.0405,-0.0405,0,0,0.0116,0.0174,0.0204,0.0358,0.0428,0.0553,0.0619,0.0704,0.073,0.0712,0.065,0.0427,0.0198,0.0008,-0.0203,-0.0273,-0.028,-0.0278,-0.0287,-0.0236,-0.0232,-0.0391,-0.0345,0,0,0,0,0]}],[{"header":{"parameterUnit":"m.s-1","parameterCategory":2,"la1":30.2991,"la2":30.254,"lo1":-89.0895,"lo2":-89.0444,"dy":0.0017,"dx":0.0017,"nx":28,"ny":28,"refTime":"2024-09-28T09:00:00:Z","depth":"4","parameterNumber":2,"parameterNumberName":"U-component_of_CURRENTS"},"data":[0,0,0,0,0,0,0,0,0,0,0,0,0,0,0,0,0,0,0,0,0,0,0,0,0,0,0,0,0,0,0,0,0,0,0,0,0,0,0,0,0,0,0,0,0,0,0,0,0,0,0,0,0,0,0,0,0,0,-0.0182,-0.0181,0,-0.0179,-0.018,-0.018,-0.0197,-0.0197,-0.0197,-0.0197,-0.0225,-0.0225,-0.0226,0,0,0,0,0,0,0,0,0,0,0,0,0,-0.022,-0.0219,-0.0182,-0.0181,-0.0181,-0.0179,-0.018,-0.018,-0.0197,-0.0197,-0.0197,-0.0198,-0.0225,-0.0225,-0.0226,0,0,0,0,0,0,0,0,0,0,0,0,0,-0.0212,-0.0219,-0.0182,-0.0187,-0.0187,-0.0179,-0.018,-0.018,-0.0197,-0.0197,-0.0197,-0.0198,-0.0224,-0.0225,-0.0226,-0.0225,0,0,-0.0229,-0.0229,0,0,0,0,0,0,0,0,-0.0212,-0.0211,-0.0187,-0.0187,-0.0187,-0.0186,-0.0203,-0.0195,-0.0197,-0.0196,-0.0197,-0.0198,-0.0212,-0.0214,-0.0217,-0.0226,-0.0227,-0.0229,-0.0229,-0.0229,-0.023,0,0,0,0,0,0,0,-0.0213,-0.0211,-0.0184,-0.0186,-0.0186,-0.0196,-0.0195,-0.0202,-0.0206,-0.0196,-0.0197,-0.0192,-0.0213,-0.0216,-0.0218,-0.0228,-0.0229,-0.0229,-0.023,-0.023,-0.0274,-0.0274,0,0,0,0,0,0,-0.0205,-0.0211,-0.0184,-0.0183,-0.0197,-0.0195,-0.0194,-0.0188,-0.0205,-0.0207,-0.0191,-0.0192,-0.0215,-0.0217,-0.0219,-0.0245,-0.0229,-0.023,-0.0231,-0.0273,-0.0274,-0.0274,0,0,0,0,0,0,-0.0206,-0.0203,-0.0184,-0.0195,-0.0193,-0.0193,-0.0187,-0.0188,-0.0201,-0.02,-0.0203,-0.0204,-0.0215,-0.0218,-0.0228,-0.0245,-0.0231,-0.0231,-0.0272,-0.0273,-0.0274,-0.0281,0,0,0,0,0,0,-0.0207,-0.0203,-0.0204,-0.0194,-0.0192,-0.0187,-0.0186,-0.0188,-0.0196,-0.0197,-0.0212,-0.0214,-0.0215,-0.0227,-0.0229,-0.0246,-0.0232,-0.0271,-0.0273,-0.0274,-0.028,-0.0282,-0.0284,0,0,0,0,0,-0.0209,-0.0208,-0.0204,-0.0201,-0.019,-0.0187,-0.0188,-0.0191,-0.0196,-0.0204,-0.0209,-0.0214,-0.0237,-0.0228,-0.023,-0.0248,-0.0271,-0.0272,-0.0274,-0.0279,-0.0281,-0.0284,0,0,0,0,0,0,-0.0225,-0.0209,-0.0205,-0.0199,-0.0196,-0.0189,-0.0195,-0.0197,-0.0208,-0.021,-0.0216,-0.0218,-0.0234,-0.024,-0.023,-0.0265,-0.0258,-0.026,-0.0261,-0.0264,-0.0266,-0.0255,-0.0233,0,0,0,0,0,-0.0227,-0.0223,-0.021,-0.0206,-0.0205,-0.0203,-0.0204,-0.0203,-0.0205,-0.0211,-0.0221,-0.0232,-0.0241,-0.0251,-0.0258,-0.0275,-0.0261,-0.0291,-0.0293,-0.0294,-0.0288,-0.027,-0.0269,-0.0279,-0.0279,-0.0279,0,0,-0.0227,-0.0221,-0.0216,-0.0209,-0.0208,-0.0205,-0.0206,-0.0207,-0.0207,-0.0212,-0.0226,-0.0236,-0.0246,-0.0262,-0.0271,-0.0271,-0.0288,-0.0296,-0.0297,-0.029,-0.0271,-0.027,-0.0268,-0.028,-0.028,-0.028,0,0,-0.0232,-0.0226,-0.0226,-0.0222,-0.0217,-0.0214,-0.0216,-0.0215,-0.0222,-0.0229,-0.0235,-0.0248,-0.027,-0.0275,-0.0281,-0.0299,-0.0295,-0.0316,-0.0322,-0.0305,-0.0303,-0.0301,-0.0292,-0.029,-0.0322,-0.0322,-0.0322,0,-0.0239,-0.0229,-0.0227,-0.0226,-0.0219,-0.0219,-0.0215,-0.0219,-0.0223,-0.0224,-0.0236,-0.0259,-0.0271,-0.0282,-0.0295,-0.0302,-0.0295,-0.0311,-0.0305,-0.0303,-0.0301,-0.0292,-0.0289,-0.0323,-0.0323,-0.0323,-0.0323,0,-0.0234,-0.0231,-0.0232,-0.0227,-0.0226,-0.022,-0.0217,-0.0224,-0.0232,-0.0231,-0.0247,-0.0263,-0.028,-0.0293,-0.0302,-0.0307,-0.0308,-0.0304,-0.0294,-0.03,-0.0291,-0.0288,-0.0324,-0.0323,-0.0323,-0.0323,0,0,-0.0238,-0.023,-0.0232,-0.0226,-0.0221,-0.0217,-0.0221,-0.0217,-0.0215,-0.0233,-0.0235,-0.0263,-0.0279,-0.0288,-0.0307,-0.0299,-0.0291,-0.0305,-0.0304,-0.0288,-0.0259,-0.0202,-0.0193,-0.0286,-0.0285,-0.0285,-0.0261,0,-0.0237,-0.0232,-0.0229,-0.0222,-0.0216,-0.0213,-0.0212,-0.0209,-0.0216,-0.0219,-0.0235,-0.025,-0.0277,-0.0295,-0.0293,-0.0285,-0.0282,-0.0298,-0.0263,-0.0262,-0.0203,-0.0187,-0.0283,-0.0258,-0.0257,-0.0257,-0.0256,0,-0.0232,-0.0227,-0.0222,-0.0211,-0.0208,-0.0203,-0.0196,-0.0196,-0.0196,-0.0209,-0.0228,-0.0241,-0.0254,-0.027,-0.026,-0.0272,-0.0272,-0.0262,-0.0261,-0.0199,-0.0198,-0.025,-0.025,-0.0251,-0.0251,-0.0252,-0.0252,0,-0.0231,-0.0222,-0.0217,-0.0211,-0.02,-0.0196,-0.0191,-0.0188,-0.0186,-0.0205,-0.0205,-0.0226,-0.023,-0.0232,-0.0235,-0.0249,-0.0203,-0.0217,-0.0164,-0.0161,-0.0218,-0.0219,-0.02,-0.02,-0.02,-0.02,-0.02,0,-0.0227,-0.0222,-0.0212,-0.0208,-0.019,-0.0188,-0.0176,-0.0181,-0.0181,-0.017,-0.0204,-0.02,-0.0218,-0.0202,-0.0216,-0.0172,-0.0191,-0.0153,-0.0142,-0.0224,-0.0227,-0.0216,-0.0218,-0.0199,-0.02,-0.02,-0.02,0,-0.0229,-0.0225,-0.0215,-0.02,-0.0191,-0.0179,-0.0161,-0.0151,-0.0161,-0.0149,-0.0158,-0.0165,-0.0143,-0.0148,-0.0133,-0.0127,-0.0105,-0.009,-0.0175,-0.0173,-0.0085,-0.0088,-0.0024,-0.0022,-0.002,-0.0018,-0.0017,0,-0.0228,-0.0227,-0.021,-0.0193,-0.0185,-0.0164,-0.0147,-0.0148,-0.0139,-0.0123,-0.0114,-0.009,-0.0095,-0.0025,-0.0043,-0.0037,-0.0041,-0.0032,-0.0062,-0.0066,-0.0063,-0.007,-0.0075,-0.0013,-0.0013,-0.0012,-0.0012,0,-0.0229,-0.0229,-0.022,-0.0187,-0.0164,-0.0134,-0.0111,-0.0101,-0.0097,-0.0102,-0.0059,-0.0037,0.0006,0.0015,0.003,0.0023,-0.0037,-0.0011,-0.0016,-0.0044,-0.0053,-0.0053,-0.0061,-0.0005,-0.0006,-0.0006,-0.0007,0,-0.023,-0.022,-0.0208,-0.0174,-0.0142,-0.0102,-0.0094,-0.0061,-0.0047,-0.0033,-0.0014,0.0007,0.0014,0.0048,0.0053,0.0069,0.0063,0.0057,0.0048,0.004,0.0052,0.005,0.0152,0,0,0,0,0,-0.0228,-0.0214,-0.019,-0.0144,-0.011,-0.0088,-0.0065,-0.006,-0.0053,-0.0011,-0.001,0.0023,0.0065,0.0072,0.0101,0.0078,0.0054,0.0112,0.0039,0.0035,0.0027,0.0035,0,0,0,0,0,0,-0.0224,-0.0208,-0.0191,-0.0125,-0.0086,-0.0042,-0.0026,-0.002,0.0003,0.0007,0.0027,0.004,0.0069,0.0051,0.0105,0.0108,0.0069,0.0124,0.0125,0.0039,0.0032,0.0025,0.0031,0,0,0,0,0]},{"header":{"parameterUnit":"m.s-1","parameterCategory":2,"la1":30.2991,"la2":30.254,"lo1":-89.0895,"lo2":-89.0444,"dy":0.0017,"dx":0.0017,"nx":28,"ny":28,"refTime":"2024-09-28T09:00:00:Z","depth":"4","parameterNumber":3,"parameterNumberName":"V-component_of_CURRENTS"},"data":[0,0,0,0,0,0,0,0,0,0,0,0,0,0,0,0,0,0,0,0,0,0,0,0,0,0,0,0,0,0,0,0,0,0,0,0,0,0,0,0,0,0,0,0,0,0,0,0,0,0,0,0,0,0,0,0,0,0,-0.0101,-0.0101,0,-0.0124,-0.0124,-0.0124,-0.0138,-0.0138,-0.0139,-0.0139,-0.0171,-0.0172,-0.0173,0,0,0,0,0,0,0,0,0,0,0,0,0,-0.0036,-0.0038,-0.0101,-0.0101,-0.0102,-0.0124,-0.0124,-0.0124,-0.0138,-0.0138,-0.0139,-0.0139,-0.0171,-0.0172,-0.0173,0,0,0,0,0,0,0,0,0,0,0,0,0,-0.0061,-0.0038,-0.0101,-0.0112,-0.0114,-0.0124,-0.0124,-0.0124,-0.0138,-0.0138,-0.0139,-0.0139,-0.0171,-0.0172,-0.0173,-0.0174,0,0,-0.0176,-0.0176,0,0,0,0,0,0,0,0,-0.006,-0.0063,-0.011,-0.0112,-0.0113,-0.0129,-0.0113,-0.0141,-0.0138,-0.0128,-0.0139,-0.0139,-0.0159,-0.0161,-0.0163,-0.0175,-0.0176,-0.0176,-0.0177,-0.0177,-0.0177,0,0,0,0,0,0,0,-0.0058,-0.0062,-0.0109,-0.0111,-0.0112,-0.0105,-0.0109,-0.0118,-0.0141,-0.0129,-0.013,-0.0134,-0.016,-0.0162,-0.0164,-0.0177,-0.0176,-0.0177,-0.0178,-0.0178,-0.0228,-0.0229,0,0,0,0,0,0,-0.0059,-0.0061,-0.0108,-0.011,-0.0088,-0.0106,-0.011,-0.0123,-0.014,-0.0144,-0.0134,-0.0135,-0.016,-0.0162,-0.0165,-0.0201,-0.0177,-0.0178,-0.0179,-0.0227,-0.0228,-0.0229,0,0,0,0,0,0,-0.0058,-0.0064,-0.0107,-0.0086,-0.0091,-0.0107,-0.0121,-0.0123,-0.0133,-0.0145,-0.0148,-0.0142,-0.016,-0.0163,-0.0181,-0.0201,-0.0179,-0.018,-0.0226,-0.0228,-0.0229,-0.0251,0,0,0,0,0,0,-0.0056,-0.0063,-0.0074,-0.0087,-0.0093,-0.0117,-0.0121,-0.0124,-0.0135,-0.0137,-0.0152,-0.0155,-0.0161,-0.0179,-0.0182,-0.0202,-0.018,-0.0226,-0.0227,-0.0228,-0.0249,-0.0252,-0.0255,0,0,0,0,0,-0.0054,-0.0069,-0.0075,-0.0081,-0.0107,-0.0117,-0.012,-0.013,-0.0135,-0.014,-0.0153,-0.0155,-0.019,-0.018,-0.0183,-0.0204,-0.0225,-0.0227,-0.0228,-0.0248,-0.0252,-0.0255,0,0,0,0,0,0,-0.005,-0.0073,-0.0079,-0.0102,-0.011,-0.012,-0.0128,-0.0134,-0.0146,-0.0149,-0.016,-0.0164,-0.019,-0.0191,-0.018,-0.0223,-0.0209,-0.0212,-0.0223,-0.0227,-0.023,-0.0233,-0.0181,0,0,0,0,0,-0.0053,-0.007,-0.0086,-0.0103,-0.0108,-0.0118,-0.0124,-0.013,-0.0142,-0.0148,-0.0164,-0.0179,-0.0197,-0.0207,-0.0221,-0.0239,-0.0234,-0.0255,-0.0258,-0.0261,-0.0266,-0.0272,-0.0276,-0.0234,-0.0234,-0.0234,0,0,-0.0057,-0.0071,-0.0082,-0.0102,-0.011,-0.0124,-0.0123,-0.0133,-0.0152,-0.0149,-0.0183,-0.0191,-0.0204,-0.0229,-0.0241,-0.0233,-0.0269,-0.0263,-0.0265,-0.0269,-0.0274,-0.0278,-0.0281,-0.0235,-0.0235,-0.0235,0,0,-0.0064,-0.0084,-0.0096,-0.0108,-0.012,-0.0129,-0.0133,-0.0149,-0.0164,-0.0189,-0.0197,-0.0216,-0.0242,-0.0257,-0.0267,-0.0295,-0.0286,-0.03,-0.0318,-0.0324,-0.0327,-0.033,-0.0323,-0.0326,-0.0301,-0.0301,-0.0301,0,-0.0067,-0.0091,-0.01,-0.0114,-0.0129,-0.0134,-0.015,-0.0166,-0.0188,-0.0205,-0.0204,-0.0248,-0.0259,-0.0292,-0.0302,-0.0304,-0.0297,-0.0302,-0.0327,-0.033,-0.0333,-0.0325,-0.0327,-0.0302,-0.0302,-0.0302,-0.0301,0,-0.0082,-0.0105,-0.0113,-0.0138,-0.0151,-0.0166,-0.0188,-0.0208,-0.0226,-0.0242,-0.0278,-0.0289,-0.0314,-0.0322,-0.0322,-0.035,-0.0335,-0.033,-0.0316,-0.0338,-0.0329,-0.0331,-0.0304,-0.0303,-0.0303,-0.0302,0,0,-0.0089,-0.0118,-0.0124,-0.0139,-0.0168,-0.0179,-0.0216,-0.0248,-0.0274,-0.0297,-0.033,-0.036,-0.036,-0.0371,-0.0372,-0.0377,-0.0388,-0.0361,-0.036,-0.0351,-0.0388,-0.0369,-0.0369,-0.0383,-0.0383,-0.0384,-0.0372,0,-0.0101,-0.0127,-0.0144,-0.0178,-0.0196,-0.022,-0.0252,-0.0282,-0.0308,-0.0341,-0.0358,-0.0383,-0.038,-0.0386,-0.0395,-0.0393,-0.0394,-0.0391,-0.0372,-0.0371,-0.0349,-0.0372,-0.0386,-0.0373,-0.0374,-0.0374,-0.0374,0,-0.0117,-0.0133,-0.0162,-0.0201,-0.0212,-0.0234,-0.0284,-0.0315,-0.0359,-0.0381,-0.0408,-0.0411,-0.0435,-0.0419,-0.043,-0.0426,-0.0411,-0.0402,-0.0401,-0.0378,-0.0356,-0.0349,-0.0377,-0.0377,-0.0377,-0.0376,-0.0376,0,-0.0115,-0.0153,-0.0175,-0.019,-0.0231,-0.0254,-0.028,-0.0326,-0.0354,-0.0401,-0.0412,-0.0444,-0.0448,-0.0449,-0.0436,-0.0431,-0.0434,-0.0425,-0.0392,-0.039,-0.0399,-0.0396,-0.0425,-0.0425,-0.0425,-0.0425,-0.0425,0,-0.0129,-0.0151,-0.0175,-0.019,-0.0225,-0.0253,-0.0294,-0.0332,-0.0371,-0.0395,-0.0425,-0.0434,-0.0453,-0.0452,-0.0444,-0.0427,-0.0442,-0.0401,-0.0391,-0.0407,-0.0406,-0.0399,-0.0397,-0.0424,-0.0425,-0.0425,-0.0425,0,-0.013,-0.0145,-0.0174,-0.0211,-0.0225,-0.0251,-0.0296,-0.0324,-0.0361,-0.039,-0.0398,-0.0428,-0.0429,-0.0437,-0.0434,-0.0429,-0.0419,-0.0402,-0.0417,-0.0407,-0.0366,-0.0365,-0.0372,-0.0371,-0.037,-0.037,-0.037,0,-0.0134,-0.0144,-0.0181,-0.0198,-0.0218,-0.0253,-0.0279,-0.0323,-0.0344,-0.0375,-0.0381,-0.0389,-0.0401,-0.0388,-0.0405,-0.0399,-0.0389,-0.0387,-0.0385,-0.0374,-0.0364,-0.0363,-0.0362,-0.0369,-0.0369,-0.0368,-0.0368,0,-0.0143,-0.0151,-0.0173,-0.0197,-0.0225,-0.0258,-0.0288,-0.0297,-0.0335,-0.0356,-0.0352,-0.0354,-0.0353,-0.0365,-0.0364,-0.0357,-0.04,-0.0381,-0.0382,-0.038,-0.0371,-0.0361,-0.0361,-0.0366,-0.0367,-0.0367,-0.0367,0,-0.0151,-0.0164,-0.0182,-0.0204,-0.0232,-0.0256,-0.0275,-0.0286,-0.0306,-0.0323,-0.0316,-0.0327,-0.0338,-0.0341,-0.0341,-0.0341,-0.0333,-0.033,-0.0334,-0.0336,-0.0333,-0.0317,-0.0293,0,0,0,0,0,-0.0166,-0.0171,-0.0187,-0.0216,-0.0236,-0.0251,-0.028,-0.0293,-0.0306,-0.0293,-0.0303,-0.0297,-0.0299,-0.0311,-0.0303,-0.0336,-0.0345,-0.0328,-0.0345,-0.0356,-0.0358,-0.036,0,0,0,0,0,0,-0.0181,-0.0192,-0.0188,-0.0211,-0.0225,-0.0255,-0.027,-0.0283,-0.0273,-0.0279,-0.0278,-0.0283,-0.0288,-0.0292,-0.0295,-0.03,-0.0308,-0.0334,-0.0334,-0.0355,-0.0357,-0.0358,-0.0361,0,0,0,0,0]}]]